Time,TemperatureF,DewpointF,PressureIn,WindDirection,WindDirectionDegrees,WindSpeedMPH,WindSpeedGustMPH,Humidity,HourlyPrecipIn,Conditions,Clouds,dailyrainin,SolarRadiationWatts/m^2,SoftwareType,DateUTC
2013-01-13 00:00:00,22.6,21.6,30.43,N/A,-737280,0.0,-999.0,96,0.00,,,0.00,0,Wunderground v.1.15,2013-01-13 08:00:00,
2013-01-13 00:05:00,22.6,21.6,30.43,N/A,-737280,0.0,-999.0,96,0.00,,,0.00,0,Wunderground v.1.15,2013-01-13 08:05:00,
2013-01-13 00:09:00,22.6,21.0,30.43,WNW,298,0.0,0.0,95,0.00,,,0.00,0,weatherlink.com 1.10,2013-01-13 08:09:00,
2013-01-13 00:10:00,22.6,21.6,30.43,N/A,-737280,0.0,-999.0,96,0.00,,,0.00,0,Wunderground v.1.15,2013-01-13 08:10:00,
2013-01-13 00:15:00,22.6,21.6,30.43,N/A,-737280,0.0,-999.0,96,0.00,,,0.00,0,Wunderground v.1.15,2013-01-13 08:15:00,
2013-01-13 00:20:00,22.6,21.6,30.43,N/A,-737280,0.0,-999.0,96,0.00,,,0.00,0,Wunderground v.1.15,2013-01-13 08:20:00,
2013-01-13 00:24:00,22.5,22.0,30.43,WNW,298,0.0,0.0,96,0.00,,,0.00,0,weatherlink.com 1.10,2013-01-13 08:24:00,
2013-01-13 00:25:00,22.5,21.3,30.43,N/A,-737280,0.0,-999.0,95,0.00,,,0.00,0,Wunderground v.1.15,2013-01-13 08:25:00,
2013-01-13 00:30:00,22.5,21.3,30.43,N/A,-737280,0.0,-999.0,95,0.00,,,0.00,0,Wunderground v.1.15,2013-01-13 08:30:00,
2013-01-13 00:35:00,22.5,21.3,30.43,N/A,-737280,0.0,-999.0,95,0.00,,,0.00,0,Wunderground v.1.15,2013-01-13 08:35:00,
2013-01-13 00:39:00,22.5,22.0,30.43,WNW,298,0.0,0.0,96,0.00,,,0.00,0,weatherlink.com 1.10,2013-01-13 08:39:00,
2013-01-13 00:40:00,22.5,21.5,30.43,N/A,-737280,0.0,-999.0,96,0.00,,,0.00,0,Wunderground v.1.15,2013-01-13 08:40:00,
2013-01-13 00:45:00,22.5,21.5,30.43,N/A,-737280,0.0,-999.0,96,0.00,,,0.00,0,Wunderground v.1.15,2013-01-13 08:45:00,
2013-01-13 00:50:00,22.5,21.5,30.43,N/A,-737280,0.0,-999.0,96,0.00,,,0.00,0,Wunderground v.1.15,2013-01-13 08:50:00,
2013-01-13 00:54:00,22.3,21.0,30.43,WNW,298,0.0,1.0,95,0.00,,,0.00,0,weatherlink.com 1.10,2013-01-13 08:54:00,
2013-01-13 00:55:00,22.3,21.1,30.43,WNW,293,0.0,-999.0,95,0.00,,,0.00,0,Wunderground v.1.15,2013-01-13 08:55:00,
2013-01-13 01:00:00,22.3,21.1,30.43,WNW,293,0.0,-999.0,95,0.00,,,0.00,0,Wunderground v.1.15,2013-01-13 09:00:00,
2013-01-13 01:05:00,22.3,21.1,30.43,WNW,293,0.0,-999.0,95,0.00,,,0.00,0,Wunderground v.1.15,2013-01-13 09:05:00,
2013-01-13 01:09:00,22.2,21.0,30.43,WNW,298,0.0,0.0,95,0.00,,,0.00,0,weatherlink.com 1.10,2013-01-13 09:09:00,
2013-01-13 01:10:00,22.1,20.9,30.43,N/A,-737280,0.0,-999.0,95,0.00,,,0.00,0,Wunderground v.1.15,2013-01-13 09:10:00,
2013-01-13 01:15:00,22.1,20.9,30.43,N/A,-737280,0.0,-999.0,95,0.00,,,0.00,0,Wunderground v.1.15,2013-01-13 09:15:00,
2013-01-13 01:20:00,22.1,20.9,30.43,N/A,-737280,0.0,-999.0,95,0.00,,,0.00,0,Wunderground v.1.15,2013-01-13 09:20:00,
2013-01-13 01:24:00,21.9,21.0,30.43,WNW,298,0.0,0.0,95,0.00,,,0.00,0,weatherlink.com 1.10,2013-01-13 09:24:00,
2013-01-13 01:25:00,21.9,20.7,30.43,N/A,-737280,0.0,-999.0,95,0.00,,,0.00,0,Wunderground v.1.15,2013-01-13 09:25:00,
2013-01-13 01:30:00,21.9,20.7,30.43,N/A,-737280,0.0,-999.0,95,0.00,,,0.00,0,Wunderground v.1.15,2013-01-13 09:30:00,
2013-01-13 01:35:00,21.9,20.7,30.43,N/A,-737280,0.0,-999.0,95,0.00,,,0.00,0,Wunderground v.1.15,2013-01-13 09:35:00,
2013-01-13 01:39:00,21.6,20.0,30.43,WNW,298,0.0,0.0,95,0.00,,,0.00,0,weatherlink.com 1.10,2013-01-13 09:39:00,
2013-01-13 01:40:00,21.6,20.4,30.43,N/A,-737280,0.0,-999.0,95,0.00,,,0.00,0,Wunderground v.1.15,2013-01-13 09:40:00,
2013-01-13 01:45:00,21.6,20.4,30.43,N/A,-737280,0.0,-999.0,95,0.00,,,0.00,0,Wunderground v.1.15,2013-01-13 09:45:00,
2013-01-13 01:50:00,21.6,20.4,30.43,N/A,-737280,0.0,-999.0,95,0.00,,,0.00,0,Wunderground v.1.15,2013-01-13 09:50:00,
2013-01-13 01:54:00,21.5,20.0,30.43,WNW,298,0.0,0.0,95,0.00,,,0.00,0,weatherlink.com 1.10,2013-01-13 09:54:00,
2013-01-13 01:55:00,21.5,20.3,30.44,N/A,-737280,0.0,-999.0,95,0.00,,,0.00,0,Wunderground v.1.15,2013-01-13 09:55:00,
2013-01-13 02:00:00,21.5,20.3,30.44,N/A,-737280,0.0,-999.0,95,0.00,,,0.00,0,Wunderground v.1.15,2013-01-13 10:00:00,
2013-01-13 02:05:00,21.5,20.3,30.44,N/A,-737280,0.0,-999.0,95,0.00,,,0.00,0,Wunderground v.1.15,2013-01-13 10:05:00,
2013-01-13 02:09:00,21.3,20.0,30.44,WNW,298,0.0,0.0,95,0.00,,,0.00,0,weatherlink.com 1.10,2013-01-13 10:09:00,
2013-01-13 02:10:00,21.3,20.1,30.44,N/A,-737280,0.0,-999.0,95,0.00,,,0.00,0,Wunderground v.1.15,2013-01-13 10:10:00,
2013-01-13 02:15:00,21.3,20.1,30.44,N/A,-737280,0.0,-999.0,95,0.00,,,0.00,0,Wunderground v.1.15,2013-01-13 10:15:00,
2013-01-13 02:20:00,21.3,20.1,30.44,N/A,-737280,0.0,-999.0,95,0.00,,,0.00,0,Wunderground v.1.15,2013-01-13 10:20:00,
2013-01-13 02:24:00,21.1,20.0,30.45,WNW,298,0.0,0.0,95,0.00,,,0.00,0,weatherlink.com 1.10,2013-01-13 10:24:00,
2013-01-13 02:25:00,21.1,19.9,30.44,N/A,-737280,0.0,-999.0,95,0.00,,,0.00,0,Wunderground v.1.15,2013-01-13 10:25:00,
2013-01-13 02:30:00,21.1,19.9,30.44,N/A,-737280,0.0,-999.0,95,0.00,,,0.00,0,Wunderground v.1.15,2013-01-13 10:30:00,
2013-01-13 02:35:00,21.1,19.9,30.44,N/A,-737280,0.0,-999.0,95,0.00,,,0.00,0,Wunderground v.1.15,2013-01-13 10:35:00,
2013-01-13 02:39:00,21.0,20.0,30.44,WNW,298,0.0,0.0,95,0.00,,,0.00,0,weatherlink.com 1.10,2013-01-13 10:39:00,
2013-01-13 02:40:00,21.0,19.8,30.45,N/A,-737280,0.0,-999.0,95,0.00,,,0.00,0,Wunderground v.1.15,2013-01-13 10:40:00,
2013-01-13 02:45:00,21.0,19.8,30.45,N/A,-737280,0.0,-999.0,95,0.00,,,0.00,0,Wunderground v.1.15,2013-01-13 10:45:00,
2013-01-13 02:50:00,21.0,19.8,30.45,N/A,-737280,0.0,-999.0,95,0.00,,,0.00,0,Wunderground v.1.15,2013-01-13 10:50:00,
2013-01-13 02:54:00,20.8,20.0,30.45,WNW,298,0.0,0.0,95,0.00,,,0.00,0,weatherlink.com 1.10,2013-01-13 10:54:00,
2013-01-13 02:55:00,20.8,19.6,30.45,N/A,-737280,0.0,-999.0,95,0.00,,,0.00,0,Wunderground v.1.15,2013-01-13 10:55:00,
2013-01-13 03:00:00,20.8,19.6,30.45,N/A,-737280,0.0,-999.0,95,0.00,,,0.00,0,Wunderground v.1.15,2013-01-13 11:00:00,
2013-01-13 03:05:00,20.8,19.6,30.45,N/A,-737280,0.0,-999.0,95,0.00,,,0.00,0,Wunderground v.1.15,2013-01-13 11:05:00,
2013-01-13 03:09:00,20.6,19.0,30.45,WNW,298,0.0,0.0,95,0.00,,,0.00,0,weatherlink.com 1.10,2013-01-13 11:09:00,
2013-01-13 03:10:00,20.6,19.4,30.45,WNW,293,0.0,-999.0,95,0.00,,,0.00,0,Wunderground v.1.15,2013-01-13 11:10:00,
2013-01-13 03:15:00,20.6,19.4,30.45,WNW,293,0.0,-999.0,95,0.00,,,0.00,0,Wunderground v.1.15,2013-01-13 11:15:00,
2013-01-13 03:20:00,20.6,19.4,30.45,WNW,293,0.0,-999.0,95,0.00,,,0.00,0,Wunderground v.1.15,2013-01-13 11:20:00,
2013-01-13 03:24:00,20.6,19.0,30.45,WNW,298,0.0,1.0,95,0.00,,,0.00,0,weatherlink.com 1.10,2013-01-13 11:24:00,
2013-01-13 03:25:00,20.6,19.4,30.44,WNW,293,0.0,-999.0,95,0.00,,,0.00,0,Wunderground v.1.15,2013-01-13 11:25:00,
2013-01-13 03:30:00,20.6,19.4,30.44,WNW,293,0.0,-999.0,95,0.00,,,0.00,0,Wunderground v.1.15,2013-01-13 11:30:00,
2013-01-13 03:35:00,20.6,19.4,30.44,WNW,293,0.0,-999.0,95,0.00,,,0.00,0,Wunderground v.1.15,2013-01-13 11:35:00,
2013-01-13 03:39:00,20.5,19.0,30.44,WNW,298,0.0,0.0,95,0.00,,,0.00,0,weatherlink.com 1.10,2013-01-13 11:39:00,
2013-01-13 03:40:00,20.5,19.3,30.43,N/A,-737280,0.0,-999.0,95,0.00,,,0.00,0,Wunderground v.1.15,2013-01-13 11:40:00,
2013-01-13 03:45:00,20.5,19.3,30.43,N/A,-737280,0.0,-999.0,95,0.00,,,0.00,0,Wunderground v.1.15,2013-01-13 11:45:00,
2013-01-13 03:50:00,20.5,19.3,30.43,N/A,-737280,0.0,-999.0,95,0.00,,,0.00,0,Wunderground v.1.15,2013-01-13 11:50:00,
2013-01-13 03:54:00,20.3,19.0,30.43,WNW,298,0.0,0.0,95,0.00,,,0.00,0,weatherlink.com 1.10,2013-01-13 11:54:00,
2013-01-13 03:55:00,20.3,19.1,30.43,N/A,-737280,0.0,-999.0,95,0.00,,,0.00,0,Wunderground v.1.15,2013-01-13 11:55:00,
2013-01-13 04:00:00,20.3,19.1,30.43,N/A,-737280,0.0,-999.0,95,0.00,,,0.00,0,Wunderground v.1.15,2013-01-13 12:00:00,
2013-01-13 04:05:00,20.3,19.1,30.43,N/A,-737280,0.0,-999.0,95,0.00,,,0.00,0,Wunderground v.1.15,2013-01-13 12:05:00,
2013-01-13 04:09:00,20.2,19.0,30.43,WNW,298,0.0,0.0,95,0.00,,,0.00,0,weatherlink.com 1.10,2013-01-13 12:09:00,
2013-01-13 04:10:00,20.2,19.0,30.43,N/A,-737280,0.0,-999.0,95,0.00,,,0.00,0,Wunderground v.1.15,2013-01-13 12:10:00,
2013-01-13 04:15:00,20.2,19.0,30.43,N/A,-737280,0.0,-999.0,95,0.00,,,0.00,0,Wunderground v.1.15,2013-01-13 12:15:00,
2013-01-13 04:20:00,20.2,19.0,30.43,N/A,-737280,0.0,-999.0,95,0.00,,,0.00,0,Wunderground v.1.15,2013-01-13 12:20:00,
2013-01-13 04:24:00,20.2,19.0,30.43,WNW,298,0.0,0.0,95,0.00,,,0.00,0,weatherlink.com 1.10,2013-01-13 12:24:00,
2013-01-13 04:25:00,20.2,19.0,30.43,N/A,-737280,0.0,-999.0,95,0.00,,,0.00,0,Wunderground v.1.15,2013-01-13 12:25:00,
2013-01-13 04:30:00,20.2,19.0,30.43,N/A,-737280,0.0,-999.0,95,0.00,,,0.00,0,Wunderground v.1.15,2013-01-13 12:30:00,
2013-01-13 04:35:00,20.2,19.0,30.43,N/A,-737280,0.0,-999.0,95,0.00,,,0.00,0,Wunderground v.1.15,2013-01-13 12:35:00,
2013-01-13 04:39:00,20.2,19.0,30.43,WNW,298,0.0,0.0,95,0.00,,,0.00,0,weatherlink.com 1.10,2013-01-13 12:39:00,
2013-01-13 04:40:00,20.2,19.0,30.43,N/A,-737280,0.0,-999.0,95,0.00,,,0.00,0,Wunderground v.1.15,2013-01-13 12:40:00,
2013-01-13 04:45:00,20.2,19.0,30.43,N/A,-737280,0.0,-999.0,95,0.00,,,0.00,0,Wunderground v.1.15,2013-01-13 12:45:00,
2013-01-13 04:50:00,20.2,19.0,30.43,N/A,-737280,0.0,-999.0,95,0.00,,,0.00,0,Wunderground v.1.15,2013-01-13 12:50:00,
2013-01-13 04:54:00,20.1,19.0,30.43,WNW,298,0.0,0.0,95,0.00,,,0.00,0,weatherlink.com 1.10,2013-01-13 12:54:00,
2013-01-13 04:55:00,20.2,19.0,30.43,N/A,-737280,0.0,-999.0,95,0.00,,,0.00,0,Wunderground v.1.15,2013-01-13 12:55:00,
2013-01-13 05:00:00,20.2,19.0,30.43,N/A,-737280,0.0,-999.0,95,0.00,,,0.00,0,Wunderground v.1.15,2013-01-13 13:00:00,
2013-01-13 05:05:00,20.2,19.0,30.43,N/A,-737280,0.0,-999.0,95,0.00,,,0.00,0,Wunderground v.1.15,2013-01-13 13:05:00,
2013-01-13 05:09:00,20.0,19.0,30.43,WNW,298,0.0,0.0,95,0.00,,,0.00,0,weatherlink.com 1.10,2013-01-13 13:09:00,
2013-01-13 05:10:00,20.0,18.8,30.43,N/A,-737280,0.0,-999.0,95,0.00,,,0.00,0,Wunderground v.1.15,2013-01-13 13:10:00,
2013-01-13 05:15:00,20.0,18.8,30.43,N/A,-737280,0.0,-999.0,95,0.00,,,0.00,0,Wunderground v.1.15,2013-01-13 13:15:00,
2013-01-13 05:20:00,20.0,18.8,30.43,N/A,-737280,0.0,-999.0,95,0.00,,,0.00,0,Wunderground v.1.15,2013-01-13 13:20:00,
2013-01-13 05:24:00,20.0,19.0,30.43,WNW,298,0.0,0.0,95,0.00,,,0.00,0,weatherlink.com 1.10,2013-01-13 13:24:00,
2013-01-13 05:25:00,20.0,18.8,30.43,N/A,-737280,0.0,-999.0,95,0.00,,,0.00,0,Wunderground v.1.15,2013-01-13 13:25:00,
2013-01-13 05:30:00,20.0,18.8,30.43,N/A,-737280,0.0,-999.0,95,0.00,,,0.00,0,Wunderground v.1.15,2013-01-13 13:30:00,
2013-01-13 05:35:00,20.0,18.8,30.43,N/A,-737280,0.0,-999.0,95,0.00,,,0.00,0,Wunderground v.1.15,2013-01-13 13:35:00,
2013-01-13 05:39:00,19.9,19.0,30.43,WNW,298,0.0,0.0,95,0.00,,,0.00,0,weatherlink.com 1.10,2013-01-13 13:39:00,
2013-01-13 05:40:00,19.9,18.7,30.43,N/A,-737280,0.0,-999.0,95,0.00,,,0.00,0,Wunderground v.1.15,2013-01-13 13:40:00,
2013-01-13 05:45:00,19.9,18.7,30.43,N/A,-737280,0.0,-999.0,95,0.00,,,0.00,0,Wunderground v.1.15,2013-01-13 13:45:00,
2013-01-13 05:50:00,19.9,18.7,30.43,N/A,-737280,0.0,-999.0,95,0.00,,,0.00,0,Wunderground v.1.15,2013-01-13 13:50:00,
2013-01-13 05:54:00,19.9,19.0,30.43,WNW,298,0.0,0.0,95,0.00,,,0.00,0,weatherlink.com 1.10,2013-01-13 13:54:00,
2013-01-13 05:55:00,19.9,18.7,30.43,N/A,-737280,0.0,-999.0,95,0.00,,,0.00,0,Wunderground v.1.15,2013-01-13 13:55:00,
2013-01-13 06:00:00,19.9,18.7,30.43,N/A,-737280,0.0,-999.0,95,0.00,,,0.00,0,Wunderground v.1.15,2013-01-13 14:00:00,
2013-01-13 06:05:00,19.9,18.7,30.43,N/A,-737280,0.0,-999.0,95,0.00,,,0.00,0,Wunderground v.1.15,2013-01-13 14:05:00,
2013-01-13 06:09:00,19.9,19.0,30.43,WNW,298,0.0,0.0,95,0.00,,,0.00,0,weatherlink.com 1.10,2013-01-13 14:09:00,
2013-01-13 06:10:00,19.9,18.7,30.44,N/A,-737280,0.0,-999.0,95,0.00,,,0.00,0,Wunderground v.1.15,2013-01-13 14:10:00,
2013-01-13 06:15:00,19.9,18.7,30.44,N/A,-737280,0.0,-999.0,95,0.00,,,0.00,0,Wunderground v.1.15,2013-01-13 14:15:00,
2013-01-13 06:20:00,19.9,18.7,30.44,N/A,-737280,0.0,-999.0,95,0.00,,,0.00,0,Wunderground v.1.15,2013-01-13 14:20:00,
2013-01-13 06:24:00,19.9,19.0,30.44,WNW,298,0.0,0.0,95,0.00,,,0.00,0,weatherlink.com 1.10,2013-01-13 14:24:00,
2013-01-13 06:25:00,19.9,18.7,30.44,N/A,-737280,0.0,-999.0,95,0.00,,,0.00,0,Wunderground v.1.15,2013-01-13 14:25:00,
2013-01-13 06:30:00,19.9,18.7,30.44,N/A,-737280,0.0,-999.0,95,0.00,,,0.00,0,Wunderground v.1.15,2013-01-13 14:30:00,
2013-01-13 06:35:00,19.9,18.7,30.44,N/A,-737280,0.0,-999.0,95,0.00,,,0.00,0,Wunderground v.1.15,2013-01-13 14:35:00,
2013-01-13 06:40:00,19.8,19.0,30.44,WNW,298,0.0,0.0,95,0.00,,,0.00,0,weatherlink.com 1.10,2013-01-13 14:40:00,
2013-01-13 06:45:00,19.8,18.6,30.45,N/A,-737280,0.0,-999.0,95,0.00,,,0.00,0,Wunderground v.1.15,2013-01-13 14:45:00,
2013-01-13 06:50:00,19.8,18.6,30.45,N/A,-737280,0.0,-999.0,95,0.00,,,0.00,0,Wunderground v.1.15,2013-01-13 14:50:00,
2013-01-13 06:55:00,19.7,19.0,30.45,WNW,298,0.0,0.0,95,0.00,,,0.00,0,weatherlink.com 1.10,2013-01-13 14:55:00,
2013-01-13 07:00:00,19.7,18.5,30.45,N/A,-737280,0.0,-999.0,95,0.00,,,0.00,0,Wunderground v.1.15,2013-01-13 15:00:00,
2013-01-13 07:05:00,19.7,18.5,30.45,N/A,-737280,0.0,-999.0,95,0.00,,,0.00,0,Wunderground v.1.15,2013-01-13 15:05:00,
2013-01-13 07:10:00,19.6,18.0,30.45,WNW,298,0.0,0.0,95,0.00,,,0.00,0,weatherlink.com 1.10,2013-01-13 15:10:00,
2013-01-13 07:15:00,19.6,18.2,30.46,N/A,-737280,0.0,-999.0,94,0.00,,,0.00,0,Wunderground v.1.15,2013-01-13 15:15:00,
2013-01-13 07:20:00,19.6,18.2,30.46,N/A,-737280,0.0,-999.0,94,0.00,,,0.00,0,Wunderground v.1.15,2013-01-13 15:20:00,
2013-01-13 07:25:00,19.4,18.0,30.46,WNW,298,0.0,0.0,94,0.00,,,0.00,0,weatherlink.com 1.10,2013-01-13 15:25:00,
2013-01-13 07:30:00,19.4,18.0,30.47,N/A,-737280,0.0,-999.0,94,0.00,,,0.00,0,Wunderground v.1.15,2013-01-13 15:30:00,
2013-01-13 07:35:00,19.4,18.0,30.47,N/A,-737280,0.0,-999.0,94,0.00,,,0.00,0,Wunderground v.1.15,2013-01-13 15:35:00,
2013-01-13 07:40:00,19.4,18.0,30.47,WNW,298,0.0,0.0,94,0.00,,,0.00,0,weatherlink.com 1.10,2013-01-13 15:40:00,
2013-01-13 07:45:00,19.4,18.2,30.47,N/A,-737280,0.0,-999.0,95,0.00,,,0.00,0,Wunderground v.1.15,2013-01-13 15:45:00,
2013-01-13 07:50:00,19.4,18.2,30.47,N/A,-737280,0.0,-999.0,95,0.00,,,0.00,0,Wunderground v.1.15,2013-01-13 15:50:00,
2013-01-13 07:55:00,19.4,18.0,30.47,WNW,298,0.0,0.0,95,0.00,,,0.00,0,weatherlink.com 1.10,2013-01-13 15:55:00,
2013-01-13 08:00:00,19.4,18.2,30.46,N/A,-737280,0.0,-999.0,95,0.00,,,0.00,1,Wunderground v.1.15,2013-01-13 16:00:00,
2013-01-13 08:05:00,19.4,18.2,30.46,N/A,-737280,0.0,-999.0,95,0.00,,,0.00,1,Wunderground v.1.15,2013-01-13 16:05:00,
2013-01-13 08:10:00,19.4,18.0,30.46,WNW,298,0.0,0.0,95,0.00,,,0.00,11,weatherlink.com 1.10,2013-01-13 16:10:00,
2013-01-13 08:15:00,19.4,18.2,30.47,N/A,-737280,0.0,-999.0,95,0.00,,,0.00,11,Wunderground v.1.15,2013-01-13 16:15:00,
2013-01-13 08:20:00,19.4,18.2,30.47,N/A,-737280,0.0,-999.0,95,0.00,,,0.00,11,Wunderground v.1.15,2013-01-13 16:20:00,
2013-01-13 08:25:00,19.4,18.0,30.47,WNW,298,0.0,0.0,95,0.00,,,0.00,28,weatherlink.com 1.10,2013-01-13 16:25:00,
2013-01-13 08:30:00,19.4,18.2,30.47,N/A,-737280,0.0,-999.0,95,0.00,,,0.00,28,Wunderground v.1.15,2013-01-13 16:30:00,
2013-01-13 08:35:00,19.4,18.2,30.47,N/A,-737280,0.0,-999.0,95,0.00,,,0.00,28,Wunderground v.1.15,2013-01-13 16:35:00,
2013-01-13 08:40:00,19.8,19.0,30.47,WNW,298,0.0,0.0,96,0.00,,,0.00,42,weatherlink.com 1.10,2013-01-13 16:40:00,
2013-01-13 08:45:00,19.8,18.8,30.46,N/A,-737280,0.0,-999.0,96,0.00,,,0.00,43,Wunderground v.1.15,2013-01-13 16:45:00,
2013-01-13 08:50:00,19.8,18.8,30.46,N/A,-737280,0.0,-999.0,96,0.00,,,0.00,43,Wunderground v.1.15,2013-01-13 16:50:00,
2013-01-13 08:55:00,20.5,20.0,30.46,WNW,298,0.0,0.0,96,0.00,,,0.00,44,weatherlink.com 1.10,2013-01-13 16:55:00,
2013-01-13 09:00:00,20.4,19.4,30.47,N/A,-737280,0.0,-999.0,96,0.00,,,0.00,44,Wunderground v.1.15,2013-01-13 17:00:00,
2013-01-13 09:05:00,20.4,19.4,30.47,N/A,-737280,0.0,-999.0,96,0.00,,,0.00,44,Wunderground v.1.15,2013-01-13 17:05:00,
2013-01-13 09:10:00,21.3,20.0,30.47,WNW,298,0.0,0.0,96,0.00,,,0.00,40,weatherlink.com 1.10,2013-01-13 17:10:00,
2013-01-13 09:15:00,21.2,20.5,30.47,N/A,-737280,0.0,-999.0,97,0.00,,,0.00,41,Wunderground v.1.15,2013-01-13 17:15:00,
2013-01-13 09:20:00,21.2,20.5,30.47,N/A,-737280,0.0,-999.0,97,0.00,,,0.01,41,Wunderground v.1.15,2013-01-13 17:20:00,
2013-01-13 09:25:00,22.0,21.0,30.47,WNW,298,0.0,0.0,96,0.00,,,0.00,39,weatherlink.com 1.10,2013-01-13 17:25:00,
2013-01-13 09:30:00,22.2,21.2,30.47,WNW,298,0.0,0.0,96,0.00,,,0.00,42,Wunderground v.1.15,2013-01-13 17:30:00,
2013-01-13 09:35:00,22.0,21.0,30.47,N/A,-737280,0.0,-999.0,96,0.00,,,0.01,40,Wunderground v.1.15,2013-01-13 17:35:00,
2013-01-13 09:40:00,22.6,22.0,30.47,WNW,298,0.0,0.0,96,0.00,,,0.00,44,weatherlink.com 1.10,2013-01-13 17:40:00,
2013-01-13 09:45:00,22.6,21.9,30.48,N/A,-737280,0.0,-999.0,97,0.00,,,0.01,46,Wunderground v.1.15,2013-01-13 17:45:00,
2013-01-13 09:50:00,22.6,21.9,30.48,N/A,-737280,0.0,-999.0,97,0.00,,,0.01,46,Wunderground v.1.15,2013-01-13 17:50:00,
2013-01-13 09:55:00,23.5,23.0,30.48,WNW,298,1.0,1.0,97,0.00,,,0.00,44,weatherlink.com 1.10,2013-01-13 17:55:00,
2013-01-13 10:00:00,23.5,22.8,30.48,WNW,293,0.0,-999.0,97,0.00,,,0.01,50,Wunderground v.1.15,2013-01-13 18:00:00,
2013-01-13 10:05:00,23.5,22.8,30.48,WNW,293,0.0,-999.0,97,0.00,,,0.01,50,Wunderground v.1.15,2013-01-13 18:05:00,
2013-01-13 10:10:00,24.3,24.0,30.48,WNW,298,0.0,0.0,97,0.00,,,0.00,111,weatherlink.com 1.10,2013-01-13 18:10:00,
2013-01-13 10:15:00,24.3,23.3,30.48,N/A,-737280,0.0,-999.0,96,0.00,,,0.01,103,Wunderground v.1.15,2013-01-13 18:15:00,
2013-01-13 10:20:00,24.3,23.3,30.48,N/A,-737280,0.0,-999.0,96,0.00,,,0.01,103,Wunderground v.1.15,2013-01-13 18:20:00,
2013-01-13 10:25:00,24.8,24.0,30.48,WNW,298,0.0,1.0,97,0.00,,,0.00,195,weatherlink.com 1.10,2013-01-13 18:25:00,
2013-01-13 10:30:00,24.8,24.1,30.48,WNW,293,0.0,-999.0,97,0.00,,,0.01,157,Wunderground v.1.15,2013-01-13 18:30:00,
2013-01-13 10:35:00,24.8,24.1,30.48,WNW,293,0.0,-999.0,97,0.00,,,0.01,157,Wunderground v.1.15,2013-01-13 18:35:00,
2013-01-13 10:40:00,25.7,25.0,30.48,WNW,298,0.0,1.0,97,0.00,,,0.00,211,weatherlink.com 1.10,2013-01-13 18:40:00,
2013-01-13 10:45:00,25.6,24.9,30.48,WNW,293,0.0,-999.0,97,0.00,,,0.01,206,Wunderground v.1.15,2013-01-13 18:45:00,
2013-01-13 10:50:00,25.6,24.9,30.48,WNW,293,0.0,-999.0,97,0.00,,,0.01,206,Wunderground v.1.15,2013-01-13 18:50:00,
2013-01-13 10:55:00,26.5,26.0,30.48,WSW,239,0.0,1.0,97,0.00,,,0.00,294,weatherlink.com 1.10,2013-01-13 18:55:00,
2013-01-13 11:00:00,26.5,25.5,30.48,WSW,248,0.0,-999.0,96,0.00,,,0.01,277,Wunderground v.1.15,2013-01-13 19:00:00,
2013-01-13 11:05:00,26.5,25.5,30.48,WSW,248,0.0,-999.0,96,0.00,,,0.01,277,Wunderground v.1.15,2013-01-13 19:05:00,
2013-01-13 11:10:00,27.2,26.2,30.46,South,180,0.0,-999.0,96,0.00,,,0.01,219,Wunderground v.1.15,2013-01-13 19:10:00,
2013-01-13 11:13:00,27.2,26.0,30.48,SSE,167,1.0,3.0,96,0.00,,,0.00,125,weatherlink.com 1.10,2013-01-13 19:13:00,
2013-01-13 11:15:00,27.2,26.2,30.46,South,180,0.0,-999.0,96,0.00,,,0.01,219,Wunderground v.1.15,2013-01-13 19:15:00,
2013-01-13 11:20:00,27.2,26.2,30.46,South,180,0.0,-999.0,96,0.00,,,0.01,219,Wunderground v.1.15,2013-01-13 19:20:00,
2013-01-13 11:25:00,27.9,26.9,30.46,SSE,158,0.0,-999.0,96,0.00,,,0.01,288,Wunderground v.1.15,2013-01-13 19:25:00,
2013-01-13 11:26:00,27.9,27.0,30.46,SSE,147,1.0,3.0,96,0.00,,,0.00,309,weatherlink.com 1.10,2013-01-13 19:26:00,
2013-01-13 11:30:00,27.9,26.9,30.46,SSE,158,0.0,-999.0,96,0.00,,,0.01,288,Wunderground v.1.15,2013-01-13 19:30:00,
2013-01-13 11:35:00,27.9,26.9,30.46,SSE,158,0.0,-999.0,96,0.00,,,0.01,288,Wunderground v.1.15,2013-01-13 19:35:00,
2013-01-13 11:40:00,29.0,27.2,30.46,SSE,158,0.0,-999.0,93,0.00,,,0.01,310,Wunderground v.1.15,2013-01-13 19:40:00,
2013-01-13 11:41:00,29.1,28.0,30.46,SSE,151,0.0,4.0,94,0.00,,,0.00,316,weatherlink.com 1.10,2013-01-13 19:41:00,
2013-01-13 11:45:00,29.0,27.2,30.46,SSE,158,0.0,-999.0,93,0.00,,,0.01,310,Wunderground v.1.15,2013-01-13 19:45:00,
2013-01-13 11:50:00,29.0,27.2,30.46,SSE,158,0.0,-999.0,93,0.00,,,0.01,310,Wunderground v.1.15,2013-01-13 19:50:00,
2013-01-13 11:55:00,29.9,27.9,30.46,SSE,158,0.0,-999.0,92,0.01,,,0.01,231,Wunderground v.1.15,2013-01-13 19:55:00,
2013-01-13 11:56:00,30.0,28.0,30.46,SSE,163,2.0,2.0,93,0.01,,,0.01,186,weatherlink.com 1.10,2013-01-13 19:56:00,
2013-01-13 12:00:00,29.9,27.9,30.46,SSE,158,0.0,-999.0,92,0.01,,,0.01,231,Wunderground v.1.15,2013-01-13 20:00:00,
2013-01-13 12:05:00,29.9,27.9,30.46,SSE,158,0.0,-999.0,92,0.01,,,0.01,231,Wunderground v.1.15,2013-01-13 20:05:00,
2013-01-13 12:10:00,30.5,28.2,30.46,SW,225,0.0,-999.0,91,0.01,,,0.01,337,Wunderground v.1.15,2013-01-13 20:10:00,
2013-01-13 12:11:00,30.5,28.0,30.46,SW,236,0.0,2.0,91,0.01,,,0.01,367,weatherlink.com 1.10,2013-01-13 20:11:00,
2013-01-13 12:15:00,30.5,28.2,30.46,SW,225,0.0,-999.0,91,0.01,,,0.01,337,Wunderground v.1.15,2013-01-13 20:15:00,
2013-01-13 12:20:00,30.5,28.2,30.46,SW,225,0.0,-999.0,91,0.01,,,0.01,337,Wunderground v.1.15,2013-01-13 20:20:00,
2013-01-13 12:25:00,31.4,28.3,30.45,SE,135,0.0,-999.0,88,0.01,,,0.01,349,Wunderground v.1.15,2013-01-13 20:25:00,
2013-01-13 12:26:00,31.4,29.0,30.46,SE,142,1.0,2.0,89,0.01,,,0.01,371,weatherlink.com 1.10,2013-01-13 20:26:00,
2013-01-13 12:30:00,31.4,28.3,30.45,SE,135,0.0,-999.0,88,0.01,,,0.01,349,Wunderground v.1.15,2013-01-13 20:30:00,
2013-01-13 12:35:00,31.4,28.3,30.45,SE,135,0.0,-999.0,88,0.01,,,0.01,349,Wunderground v.1.15,2013-01-13 20:35:00,
2013-01-13 12:40:00,32.1,28.9,30.45,SSE,158,0.0,-999.0,88,0.01,,,0.01,320,Wunderground v.1.15,2013-01-13 20:40:00,
2013-01-13 12:41:00,32.2,29.0,30.45,SE,134,0.0,2.0,88,0.01,,,0.01,343,weatherlink.com 1.10,2013-01-13 20:41:00,
2013-01-13 12:45:00,32.1,28.9,30.45,SSE,158,0.0,-999.0,88,0.01,,,0.01,320,Wunderground v.1.15,2013-01-13 20:45:00,
2013-01-13 12:50:00,32.1,28.9,30.45,SSE,158,0.0,-999.0,88,0.01,,,0.01,320,Wunderground v.1.15,2013-01-13 20:50:00,
2013-01-13 12:55:00,32.4,29.0,30.45,SE,135,0.0,-999.0,87,0.00,,,0.01,282,Wunderground v.1.15,2013-01-13 20:55:00,
2013-01-13 12:56:00,32.5,29.0,30.45,SE,127,0.0,2.0,87,0.00,,,0.01,241,weatherlink.com 1.10,2013-01-13 20:56:00,
2013-01-13 13:00:00,32.4,29.0,30.45,SE,135,0.0,-999.0,87,0.00,,,0.01,282,Wunderground v.1.15,2013-01-13 21:00:00,
2013-01-13 13:05:00,32.4,29.0,30.45,SE,135,0.0,-999.0,87,0.00,,,0.01,282,Wunderground v.1.15,2013-01-13 21:05:00,
2013-01-13 13:10:00,33.1,29.1,30.44,SE,135,0.0,-999.0,85,0.00,,,0.01,247,Wunderground v.1.15,2013-01-13 21:10:00,
2013-01-13 13:11:00,33.2,30.0,30.45,SE,141,0.0,2.0,86,0.00,,,0.01,199,weatherlink.com 1.10,2013-01-13 21:11:00,
2013-01-13 13:15:00,33.1,29.1,30.44,SE,135,0.0,-999.0,85,0.00,,,0.01,247,Wunderground v.1.15,2013-01-13 21:15:00,
2013-01-13 13:20:00,33.1,29.1,30.44,SE,135,0.0,-999.0,85,0.00,,,0.01,247,Wunderground v.1.15,2013-01-13 21:20:00,
2013-01-13 13:25:00,33.4,29.1,30.44,SE,135,0.0,-999.0,84,0.00,,,0.01,190,Wunderground v.1.15,2013-01-13 21:25:00,
2013-01-13 13:26:00,33.4,30.0,30.44,SE,141,0.0,1.0,86,0.00,,,0.01,183,weatherlink.com 1.10,2013-01-13 21:26:00,
2013-01-13 13:30:00,33.4,29.1,30.44,SE,135,0.0,-999.0,84,0.00,,,0.01,190,Wunderground v.1.15,2013-01-13 21:30:00,
2013-01-13 13:35:00,33.4,29.1,30.44,SE,135,0.0,-999.0,84,0.00,,,0.01,190,Wunderground v.1.15,2013-01-13 21:35:00,
2013-01-13 13:40:00,33.5,29.2,30.45,SE,135,0.0,-999.0,84,0.00,,,0.01,180,Wunderground v.1.15,2013-01-13 21:40:00,
2013-01-13 13:41:00,33.5,29.0,30.44,SE,141,0.0,2.0,83,0.00,,,0.01,183,weatherlink.com 1.10,2013-01-13 21:41:00,
2013-01-13 13:45:00,33.5,29.2,30.45,SE,135,0.0,-999.0,84,0.00,,,0.01,180,Wunderground v.1.15,2013-01-13 21:45:00,
2013-01-13 13:50:00,33.5,29.2,30.45,SE,135,0.0,-999.0,84,0.00,,,0.01,180,Wunderground v.1.15,2013-01-13 21:50:00,
2013-01-13 13:55:00,33.6,29.0,30.45,WSW,248,0.0,-999.0,83,0.00,,,0.01,167,Wunderground v.1.15,2013-01-13 21:55:00,
2013-01-13 13:56:00,33.7,29.0,30.45,SE,141,0.0,0.0,83,0.00,,,0.01,163,weatherlink.com 1.10,2013-01-13 21:56:00,
2013-01-13 14:00:00,33.6,29.0,30.45,WSW,248,0.0,-999.0,83,0.00,,,0.01,167,Wunderground v.1.15,2013-01-13 22:00:00,
2013-01-13 14:05:00,33.6,29.0,30.45,WSW,248,0.0,-999.0,83,0.00,,,0.01,167,Wunderground v.1.15,2013-01-13 22:05:00,
2013-01-13 14:10:00,33.7,28.8,30.45,WSW,248,0.0,-999.0,82,0.00,,,0.01,145,Wunderground v.1.15,2013-01-13 22:10:00,
2013-01-13 14:11:00,33.7,29.0,30.45,WSW,244,0.0,1.0,83,0.00,,,0.01,139,weatherlink.com 1.10,2013-01-13 22:11:00,
2013-01-13 14:15:00,33.7,28.8,30.45,WSW,248,0.0,-999.0,82,0.00,,,0.01,145,Wunderground v.1.15,2013-01-13 22:15:00,
2013-01-13 14:20:00,33.7,28.8,30.45,WSW,248,0.0,-999.0,82,0.00,,,0.01,145,Wunderground v.1.15,2013-01-13 22:20:00,
2013-01-13 14:25:00,33.8,28.9,30.45,WSW,248,0.0,-999.0,82,0.00,,,0.01,126,Wunderground v.1.15,2013-01-13 22:25:00,
2013-01-13 14:26:00,33.8,29.0,30.45,WSW,244,0.0,1.0,81,0.00,,,0.01,128,weatherlink.com 1.10,2013-01-13 22:26:00,
2013-01-13 14:30:00,33.8,28.9,30.45,WSW,248,0.0,-999.0,82,0.00,,,0.01,126,Wunderground v.1.15,2013-01-13 22:30:00,
2013-01-13 14:35:00,33.8,28.9,30.45,WSW,248,0.0,-999.0,82,0.00,,,0.01,126,Wunderground v.1.15,2013-01-13 22:35:00,
2013-01-13 14:40:00,33.8,28.3,30.45,WSW,248,0.0,-999.0,80,0.00,,,0.01,119,Wunderground v.1.15,2013-01-13 22:40:00,
2013-01-13 14:41:00,33.9,29.0,30.45,WSW,244,0.0,1.0,82,0.00,,,0.01,120,weatherlink.com 1.10,2013-01-13 22:41:00,
2013-01-13 14:45:00,33.8,28.3,30.45,WSW,248,0.0,-999.0,80,0.00,,,0.01,119,Wunderground v.1.15,2013-01-13 22:45:00,
2013-01-13 14:50:00,33.8,28.3,30.45,WSW,248,0.0,-999.0,80,0.00,,,0.01,119,Wunderground v.1.15,2013-01-13 22:50:00,
2013-01-13 14:55:00,33.9,28.7,30.44,SW,225,0.0,-999.0,81,0.00,,,0.01,103,Wunderground v.1.15,2013-01-13 22:55:00,
2013-01-13 14:56:00,33.9,28.0,30.45,WSW,244,0.0,1.0,80,0.00,,,0.01,102,weatherlink.com 1.10,2013-01-13 22:56:00,
2013-01-13 15:00:00,33.9,28.7,30.44,SW,225,0.0,-999.0,81,0.00,,,0.01,103,Wunderground v.1.15,2013-01-13 23:00:00,
2013-01-13 15:05:00,33.9,28.7,30.44,SW,225,0.0,-999.0,81,0.00,,,0.01,103,Wunderground v.1.15,2013-01-13 23:05:00,
2013-01-13 15:10:00,34.0,28.8,30.44,SW,225,0.0,-999.0,81,0.00,,,0.01,97,Wunderground v.1.15,2013-01-13 23:10:00,
2013-01-13 15:11:00,34.0,29.0,30.45,SW,219,0.0,1.0,82,0.00,,,0.01,95,weatherlink.com 1.10,2013-01-13 23:11:00,
2013-01-13 15:15:00,34.0,28.8,30.44,SW,225,0.0,-999.0,81,0.00,,,0.01,97,Wunderground v.1.15,2013-01-13 23:15:00,
2013-01-13 15:20:00,34.0,28.8,30.44,SW,225,0.0,-999.0,81,0.00,,,0.01,97,Wunderground v.1.15,2013-01-13 23:20:00,
2013-01-13 15:25:00,34.1,29.2,30.45,SW,225,0.0,-999.0,82,0.00,,,0.01,80,Wunderground v.1.15,2013-01-13 23:25:00,
2013-01-13 15:26:00,34.0,29.0,30.45,SW,219,0.0,1.0,83,0.00,,,0.01,79,weatherlink.com 1.10,2013-01-13 23:26:00,
2013-01-13 15:30:00,34.1,29.2,30.45,SW,225,0.0,-999.0,82,0.00,,,0.01,80,Wunderground v.1.15,2013-01-13 23:30:00,
2013-01-13 15:35:00,34.1,29.2,30.45,SW,225,0.0,-999.0,82,0.00,,,0.01,80,Wunderground v.1.15,2013-01-13 23:35:00,
2013-01-13 15:40:00,34.1,28.9,30.45,SW,225,0.0,-999.0,81,0.00,,,0.01,61,Wunderground v.1.15,2013-01-13 23:40:00,
2013-01-13 15:41:00,34.1,29.0,30.45,SW,219,0.0,1.0,81,0.00,,,0.01,65,weatherlink.com 1.10,2013-01-13 23:41:00,
2013-01-13 15:45:00,34.1,28.9,30.45,SW,225,0.0,-999.0,81,0.00,,,0.01,61,Wunderground v.1.15,2013-01-13 23:45:00,
2013-01-13 15:50:00,34.1,28.9,30.45,SW,225,0.0,-999.0,81,0.00,,,0.01,61,Wunderground v.1.15,2013-01-13 23:50:00,
2013-01-13 15:55:00,33.9,28.7,30.45,SW,225,0.0,-999.0,81,0.00,,,0.01,55,Wunderground v.1.15,2013-01-13 23:55:00,
2013-01-13 15:56:00,33.8,28.0,30.45,SW,219,0.0,0.0,80,0.00,,,0.01,54,weatherlink.com 1.10,2013-01-13 23:56:00,
2013-01-13 16:00:00,33.9,28.7,30.45,SW,225,0.0,-999.0,81,0.00,,,0.01,55,Wunderground v.1.15,2013-01-14 00:00:00,
2013-01-13 16:05:00,33.9,28.7,30.45,SW,225,0.0,-999.0,81,0.00,,,0.01,55,Wunderground v.1.15,2013-01-14 00:05:00,
2013-01-13 16:10:00,33.5,28.6,30.45,SW,225,0.0,-999.0,82,0.00,,,0.01,34,Wunderground v.1.15,2013-01-14 00:10:00,
2013-01-13 16:11:00,33.5,29.0,30.45,SW,217,0.0,1.0,83,0.00,,,0.01,32,weatherlink.com 1.10,2013-01-14 00:11:00,
2013-01-13 16:15:00,33.5,28.6,30.45,SW,225,0.0,-999.0,82,0.00,,,0.01,34,Wunderground v.1.15,2013-01-14 00:15:00,
2013-01-13 16:20:00,33.5,28.6,30.45,SW,225,0.0,-999.0,82,0.00,,,0.01,34,Wunderground v.1.15,2013-01-14 00:20:00,
2013-01-13 16:25:00,33.1,28.8,30.45,N/A,-737280,0.0,-999.0,84,0.00,,,0.01,14,Wunderground v.1.15,2013-01-14 00:25:00,
2013-01-13 16:26:00,33.0,28.0,30.45,SW,217,0.0,0.0,83,0.00,,,0.01,12,weatherlink.com 1.10,2013-01-14 00:26:00,
2013-01-13 16:30:00,33.1,28.8,30.45,N/A,-737280,0.0,-999.0,84,0.00,,,0.01,14,Wunderground v.1.15,2013-01-14 00:30:00,
2013-01-13 16:35:00,33.1,28.8,30.45,N/A,-737280,0.0,-999.0,84,0.00,,,0.01,14,Wunderground v.1.15,2013-01-14 00:35:00,
2013-01-13 16:40:00,32.3,28.0,30.45,N/A,-737280,0.0,-999.0,84,0.00,,,0.01,5,Wunderground v.1.15,2013-01-14 00:40:00,
2013-01-13 16:41:00,32.2,28.0,30.45,SW,217,0.0,0.0,84,0.00,,,0.01,5,weatherlink.com 1.10,2013-01-14 00:41:00,
2013-01-13 16:45:00,32.3,28.0,30.45,N/A,-737280,0.0,-999.0,84,0.00,,,0.01,5,Wunderground v.1.15,2013-01-14 00:45:00,
2013-01-13 16:50:00,32.3,28.0,30.45,N/A,-737280,0.0,-999.0,84,0.00,,,0.01,5,Wunderground v.1.15,2013-01-14 00:50:00,
2013-01-13 16:55:00,31.6,27.9,30.45,N/A,-737280,0.0,-999.0,86,0.00,,,0.01,0,Wunderground v.1.15,2013-01-14 00:55:00,
2013-01-13 16:56:00,31.5,28.0,30.45,SW,217,0.0,0.0,85,0.00,,,0.01,0,weatherlink.com 1.10,2013-01-14 00:56:00,
2013-01-13 17:00:00,31.6,27.9,30.45,N/A,-737280,0.0,-999.0,86,0.00,,,0.01,0,Wunderground v.1.15,2013-01-14 01:00:00,
2013-01-13 17:05:00,31.6,27.9,30.45,N/A,-737280,0.0,-999.0,86,0.00,,,0.01,0,Wunderground v.1.15,2013-01-14 01:05:00,
2013-01-13 17:10:00,30.9,27.5,30.46,N/A,-737280,0.0,-999.0,87,0.00,,,0.01,0,Wunderground v.1.15,2013-01-14 01:10:00,
2013-01-13 17:11:00,30.8,27.0,30.45,SW,217,0.0,0.0,87,0.00,,,0.01,0,weatherlink.com 1.10,2013-01-14 01:11:00,
2013-01-13 17:15:00,30.9,27.5,30.46,N/A,-737280,0.0,-999.0,87,0.00,,,0.01,0,Wunderground v.1.15,2013-01-14 01:15:00,
2013-01-13 17:20:00,30.9,27.5,30.46,N/A,-737280,0.0,-999.0,87,0.00,,,0.01,0,Wunderground v.1.15,2013-01-14 01:20:00,
2013-01-13 17:25:00,30.4,27.5,30.46,N/A,-737280,0.0,-999.0,89,0.00,,,0.01,0,Wunderground v.1.15,2013-01-14 01:25:00,
2013-01-13 17:26:00,30.3,27.0,30.46,SW,217,0.0,0.0,88,0.00,,,0.01,0,weatherlink.com 1.10,2013-01-14 01:26:00,
2013-01-13 17:30:00,30.4,27.5,30.46,N/A,-737280,0.0,-999.0,89,0.00,,,0.01,0,Wunderground v.1.15,2013-01-14 01:30:00,
2013-01-13 17:35:00,30.4,27.5,30.46,N/A,-737280,0.0,-999.0,89,0.00,,,0.01,0,Wunderground v.1.15,2013-01-14 01:35:00,
2013-01-13 17:40:00,29.9,27.3,30.47,N/A,-737280,0.0,-999.0,90,0.00,,,0.01,0,Wunderground v.1.15,2013-01-14 01:40:00,
2013-01-13 17:41:00,29.8,27.0,30.46,SW,217,0.0,0.0,90,0.00,,,0.01,0,weatherlink.com 1.10,2013-01-14 01:41:00,
2013-01-13 17:45:00,29.9,27.3,30.47,N/A,-737280,0.0,-999.0,90,0.00,,,0.01,0,Wunderground v.1.15,2013-01-14 01:45:00,
2013-01-13 17:50:00,29.9,27.3,30.47,N/A,-737280,0.0,-999.0,90,0.00,,,0.01,0,Wunderground v.1.15,2013-01-14 01:50:00,
2013-01-13 17:55:00,29.4,27.1,30.46,N/A,-737280,0.0,-999.0,91,0.00,,,0.01,0,Wunderground v.1.15,2013-01-14 01:55:00,
2013-01-13 17:56:00,29.4,27.0,30.47,SW,217,0.0,0.0,91,0.00,,,0.01,0,weatherlink.com 1.10,2013-01-14 01:56:00,
2013-01-13 18:00:00,29.4,27.1,30.46,N/A,-737280,0.0,-999.0,91,0.00,,,0.01,0,Wunderground v.1.15,2013-01-14 02:00:00,
2013-01-13 18:05:00,29.4,27.1,30.46,N/A,-737280,0.0,-999.0,91,0.00,,,0.01,0,Wunderground v.1.15,2013-01-14 02:05:00,
2013-01-13 18:10:00,29.1,27.1,30.46,N/A,-737280,0.0,-999.0,92,0.00,,,0.01,0,Wunderground v.1.15,2013-01-14 02:10:00,
2013-01-13 18:11:00,29.0,27.0,30.46,SW,217,0.0,0.0,92,0.00,,,0.01,0,weatherlink.com 1.10,2013-01-14 02:11:00,
2013-01-13 18:15:00,29.1,27.1,30.46,N/A,-737280,0.0,-999.0,92,0.00,,,0.01,0,Wunderground v.1.15,2013-01-14 02:15:00,
2013-01-13 18:20:00,29.1,27.1,30.46,N/A,-737280,0.0,-999.0,92,0.00,,,0.01,0,Wunderground v.1.15,2013-01-14 02:20:00,
2013-01-13 18:25:00,29.0,27.2,30.45,N/A,-737280,0.0,-999.0,93,0.00,,,0.01,0,Wunderground v.1.15,2013-01-14 02:25:00,
2013-01-13 18:26:00,29.0,27.0,30.46,SW,217,0.0,0.0,93,0.00,,,0.01,0,weatherlink.com 1.10,2013-01-14 02:26:00,
2013-01-13 18:30:00,29.0,27.2,30.45,N/A,-737280,0.0,-999.0,93,0.00,,,0.01,0,Wunderground v.1.15,2013-01-14 02:30:00,
2013-01-13 18:35:00,29.0,27.2,30.45,N/A,-737280,0.0,-999.0,93,0.00,,,0.01,0,Wunderground v.1.15,2013-01-14 02:35:00,
2013-01-13 18:40:00,28.9,27.4,30.44,N/A,-737280,0.0,-999.0,94,0.00,,,0.01,0,Wunderground v.1.15,2013-01-14 02:40:00,
2013-01-13 18:41:00,28.9,27.0,30.45,SW,217,0.0,0.0,94,0.00,,,0.01,0,weatherlink.com 1.10,2013-01-14 02:41:00,
2013-01-13 18:45:00,28.9,27.4,30.44,N/A,-737280,0.0,-999.0,94,0.00,,,0.01,0,Wunderground v.1.15,2013-01-14 02:45:00,
2013-01-13 18:50:00,28.9,27.4,30.44,N/A,-737280,0.0,-999.0,94,0.00,,,0.01,0,Wunderground v.1.15,2013-01-14 02:50:00,
2013-01-13 18:55:00,28.9,27.4,30.45,N/A,-737280,0.0,-999.0,94,0.00,,,0.01,0,Wunderground v.1.15,2013-01-14 02:55:00,
2013-01-13 18:56:00,28.9,27.0,30.44,SW,217,0.0,0.0,94,0.00,,,0.01,0,weatherlink.com 1.10,2013-01-14 02:56:00,
2013-01-13 19:00:00,28.9,27.4,30.45,N/A,-737280,0.0,-999.0,94,0.00,,,0.01,0,Wunderground v.1.15,2013-01-14 03:00:00,
2013-01-13 19:05:00,28.9,27.4,30.45,N/A,-737280,0.0,-999.0,94,0.00,,,0.01,0,Wunderground v.1.15,2013-01-14 03:05:00,
2013-01-13 19:10:00,28.9,27.4,30.46,N/A,-737280,0.0,-999.0,94,0.00,,,0.01,0,Wunderground v.1.15,2013-01-14 03:10:00,
2013-01-13 19:11:00,28.9,27.0,30.45,SW,217,0.0,0.0,94,0.00,,,0.01,0,weatherlink.com 1.10,2013-01-14 03:11:00,
2013-01-13 19:15:00,28.9,27.4,30.46,N/A,-737280,0.0,-999.0,94,0.00,,,0.01,0,Wunderground v.1.15,2013-01-14 03:15:00,
2013-01-13 19:20:00,28.9,27.4,30.46,N/A,-737280,0.0,-999.0,94,0.00,,,0.01,0,Wunderground v.1.15,2013-01-14 03:20:00,
2013-01-13 19:25:00,29.0,27.7,30.47,South,180,0.0,-999.0,95,0.00,,,0.01,0,Wunderground v.1.15,2013-01-14 03:25:00,
2013-01-13 19:26:00,29.0,28.0,30.46,South,175,0.0,1.0,95,0.00,,,0.01,0,weatherlink.com 1.10,2013-01-14 03:26:00,
2013-01-13 19:30:00,29.0,27.7,30.47,South,180,0.0,-999.0,95,0.00,,,0.01,0,Wunderground v.1.15,2013-01-14 03:30:00,
2013-01-13 19:35:00,29.0,27.7,30.47,South,180,0.0,-999.0,95,0.00,,,0.01,0,Wunderground v.1.15,2013-01-14 03:35:00,
2013-01-13 19:40:00,29.0,27.7,30.47,N/A,-737280,0.0,-999.0,95,0.00,,,0.01,0,Wunderground v.1.15,2013-01-14 03:40:00,
2013-01-13 19:41:00,29.0,28.0,30.47,South,175,0.0,0.0,95,0.00,,,0.01,0,weatherlink.com 1.10,2013-01-14 03:41:00,
2013-01-13 19:45:00,29.0,27.7,30.47,N/A,-737280,0.0,-999.0,95,0.00,,,0.01,0,Wunderground v.1.15,2013-01-14 03:45:00,
2013-01-13 19:50:00,29.0,27.7,30.47,N/A,-737280,0.0,-999.0,95,0.00,,,0.01,0,Wunderground v.1.15,2013-01-14 03:50:00,
2013-01-13 19:55:00,29.0,27.7,30.47,South,180,0.0,-999.0,95,0.00,,,0.01,0,Wunderground v.1.15,2013-01-14 03:55:00,
2013-01-13 19:56:00,29.0,28.0,30.47,South,175,0.0,0.0,95,0.00,,,0.01,0,weatherlink.com 1.10,2013-01-14 03:56:00,
2013-01-13 20:00:00,29.0,27.7,30.47,South,180,0.0,-999.0,95,0.00,,,0.01,0,Wunderground v.1.15,2013-01-14 04:00:00,
2013-01-13 20:05:00,29.0,27.7,30.47,South,180,0.0,-999.0,95,0.00,,,0.01,0,Wunderground v.1.15,2013-01-14 04:05:00,
2013-01-13 20:10:00,29.0,27.7,30.48,N/A,-737280,0.0,-999.0,95,0.00,,,0.01,0,Wunderground v.1.15,2013-01-14 04:10:00,
2013-01-13 20:11:00,29.0,28.0,30.47,South,176,0.0,0.0,95,0.00,,,0.01,0,weatherlink.com 1.10,2013-01-14 04:11:00,
2013-01-13 20:15:00,29.0,27.7,30.48,N/A,-737280,0.0,-999.0,95,0.00,,,0.01,0,Wunderground v.1.15,2013-01-14 04:15:00,
2013-01-13 20:20:00,29.0,27.7,30.48,N/A,-737280,0.0,-999.0,95,0.00,,,0.01,0,Wunderground v.1.15,2013-01-14 04:20:00,
2013-01-13 20:25:00,29.0,27.7,30.47,N/A,-737280,0.0,-999.0,95,0.00,,,0.01,0,Wunderground v.1.15,2013-01-14 04:25:00,
2013-01-13 20:26:00,29.0,28.0,30.48,South,176,0.0,0.0,95,0.00,,,0.01,0,weatherlink.com 1.10,2013-01-14 04:26:00,
2013-01-13 20:30:00,29.0,27.7,30.47,N/A,-737280,0.0,-999.0,95,0.00,,,0.01,0,Wunderground v.1.15,2013-01-14 04:30:00,
2013-01-13 20:35:00,29.0,27.7,30.47,N/A,-737280,0.0,-999.0,95,0.00,,,0.01,0,Wunderground v.1.15,2013-01-14 04:35:00,
2013-01-13 20:40:00,29.1,28.1,30.47,South,180,0.0,-999.0,96,0.00,,,0.01,0,Wunderground v.1.15,2013-01-14 04:40:00,
2013-01-13 20:41:00,29.1,28.0,30.47,South,176,0.0,1.0,96,0.00,,,0.01,0,weatherlink.com 1.10,2013-01-14 04:41:00,
2013-01-13 20:45:00,29.1,28.1,30.47,South,180,0.0,-999.0,96,0.00,,,0.01,0,Wunderground v.1.15,2013-01-14 04:45:00,
2013-01-13 20:50:00,29.1,28.1,30.47,South,180,0.0,-999.0,96,0.00,,,0.01,0,Wunderground v.1.15,2013-01-14 04:50:00,
2013-01-13 20:55:00,29.2,28.2,30.47,South,180,0.0,-999.0,96,0.00,,,0.01,0,Wunderground v.1.15,2013-01-14 04:55:00,
2013-01-13 20:56:00,29.2,28.0,30.47,South,176,0.0,1.0,96,0.00,,,0.01,0,weatherlink.com 1.10,2013-01-14 04:56:00,
2013-01-13 21:00:00,29.2,28.2,30.47,South,180,0.0,-999.0,96,0.00,,,0.01,0,Wunderground v.1.15,2013-01-14 05:00:00,
2013-01-13 21:05:00,29.2,28.2,30.47,South,180,0.0,-999.0,96,0.00,,,0.01,0,Wunderground v.1.15,2013-01-14 05:05:00,
2013-01-13 21:10:00,29.2,28.2,30.48,South,180,0.0,-999.0,96,0.00,,,0.01,0,Wunderground v.1.15,2013-01-14 05:10:00,
2013-01-13 21:11:00,29.2,28.0,30.47,South,176,0.0,1.0,96,0.00,,,0.01,0,weatherlink.com 1.10,2013-01-14 05:11:00,
2013-01-13 21:15:00,29.2,28.2,30.48,South,180,0.0,-999.0,96,0.00,,,0.01,0,Wunderground v.1.15,2013-01-14 05:15:00,
2013-01-13 21:20:00,29.2,28.2,30.48,South,180,0.0,-999.0,96,0.00,,,0.01,0,Wunderground v.1.15,2013-01-14 05:20:00,
2013-01-13 21:25:00,29.3,28.3,30.47,South,180,0.0,-999.0,96,0.00,,,0.01,0,Wunderground v.1.15,2013-01-14 05:25:00,
2013-01-13 21:26:00,29.3,28.0,30.48,South,176,0.0,0.0,96,0.00,,,0.01,0,weatherlink.com 1.10,2013-01-14 05:26:00,
2013-01-13 21:30:00,29.3,28.3,30.47,South,180,0.0,-999.0,96,0.00,,,0.01,0,Wunderground v.1.15,2013-01-14 05:30:00,
2013-01-13 21:35:00,29.3,28.3,30.47,South,180,0.0,-999.0,96,0.00,,,0.01,0,Wunderground v.1.15,2013-01-14 05:35:00,
2013-01-13 21:40:00,29.4,28.4,30.47,N/A,-737280,0.0,-999.0,96,0.00,,,0.01,0,Wunderground v.1.15,2013-01-14 05:40:00,
2013-01-13 21:41:00,29.4,28.0,30.47,South,176,0.0,0.0,96,0.00,,,0.01,0,weatherlink.com 1.10,2013-01-14 05:41:00,
2013-01-13 21:45:00,29.4,28.4,30.47,N/A,-737280,0.0,-999.0,96,0.00,,,0.01,0,Wunderground v.1.15,2013-01-14 05:45:00,
2013-01-13 21:50:00,29.4,28.4,30.47,N/A,-737280,0.0,-999.0,96,0.00,,,0.01,0,Wunderground v.1.15,2013-01-14 05:50:00,
2013-01-13 21:55:00,29.4,28.4,30.48,South,180,0.0,-999.0,96,0.00,,,0.01,0,Wunderground v.1.15,2013-01-14 05:55:00,
2013-01-13 21:56:00,29.5,29.0,30.47,South,176,0.0,0.0,96,0.00,,,0.01,0,weatherlink.com 1.10,2013-01-14 05:56:00,
2013-01-13 22:00:00,29.4,28.4,30.48,South,180,0.0,-999.0,96,0.00,,,0.01,0,Wunderground v.1.15,2013-01-14 06:00:00,
2013-01-13 22:05:00,29.4,28.4,30.48,South,180,0.0,-999.0,96,0.00,,,0.01,0,Wunderground v.1.15,2013-01-14 06:05:00,
2013-01-13 22:10:00,29.4,28.4,30.48,N/A,-737280,0.0,-999.0,96,0.00,,,0.01,0,Wunderground v.1.15,2013-01-14 06:10:00,
2013-01-13 22:11:00,29.4,28.0,30.48,South,178,0.0,0.0,96,0.00,,,0.01,0,weatherlink.com 1.10,2013-01-14 06:11:00,
2013-01-13 22:15:00,29.4,28.4,30.48,N/A,-737280,0.0,-999.0,96,0.00,,,0.01,0,Wunderground v.1.15,2013-01-14 06:15:00,
2013-01-13 22:20:00,29.4,28.4,30.48,N/A,-737280,0.0,-999.0,96,0.00,,,0.01,0,Wunderground v.1.15,2013-01-14 06:20:00,
2013-01-13 22:25:00,29.5,28.5,30.48,N/A,-737280,0.0,-999.0,96,0.00,,,0.01,0,Wunderground v.1.15,2013-01-14 06:25:00,
2013-01-13 22:26:00,29.5,29.0,30.48,South,178,0.0,0.0,96,0.00,,,0.01,0,weatherlink.com 1.10,2013-01-14 06:26:00,
2013-01-13 22:30:00,29.5,28.5,30.48,N/A,-737280,0.0,-999.0,96,0.00,,,0.01,0,Wunderground v.1.15,2013-01-14 06:30:00,
2013-01-13 22:35:00,29.5,28.5,30.48,N/A,-737280,0.0,-999.0,96,0.00,,,0.01,0,Wunderground v.1.15,2013-01-14 06:35:00,
2013-01-13 22:40:00,29.5,28.5,30.48,N/A,-737280,0.0,-999.0,96,0.00,,,0.01,0,Wunderground v.1.15,2013-01-14 06:40:00,
2013-01-13 22:41:00,29.5,28.0,30.48,South,178,0.0,0.0,95,0.00,,,0.01,0,weatherlink.com 1.10,2013-01-14 06:41:00,
2013-01-13 22:45:00,29.5,28.5,30.48,N/A,-737280,0.0,-999.0,96,0.00,,,0.01,0,Wunderground v.1.15,2013-01-14 06:45:00,
2013-01-13 22:50:00,29.5,28.5,30.48,N/A,-737280,0.0,-999.0,96,0.00,,,0.01,0,Wunderground v.1.15,2013-01-14 06:50:00,
2013-01-13 22:55:00,29.5,28.2,30.48,N/A,-737280,0.0,-999.0,95,0.00,,,0.01,0,Wunderground v.1.15,2013-01-14 06:55:00,
2013-01-13 22:56:00,29.5,28.0,30.48,South,178,0.0,0.0,95,0.00,,,0.01,0,weatherlink.com 1.10,2013-01-14 06:56:00,
2013-01-13 23:00:00,29.5,28.2,30.48,N/A,-737280,0.0,-999.0,95,0.00,,,0.01,0,Wunderground v.1.15,2013-01-14 07:00:00,
2013-01-13 23:05:00,29.5,28.2,30.48,N/A,-737280,0.0,-999.0,95,0.00,,,0.01,0,Wunderground v.1.15,2013-01-14 07:05:00,
2013-01-13 23:10:00,29.6,28.6,30.48,N/A,-737280,0.0,-999.0,96,0.00,,,0.01,0,Wunderground v.1.15,2013-01-14 07:10:00,
2013-01-13 23:11:00,29.6,29.0,30.48,South,178,0.0,0.0,96,0.00,,,0.01,0,weatherlink.com 1.10,2013-01-14 07:11:00,
2013-01-13 23:15:00,29.6,28.6,30.48,N/A,-737280,0.0,-999.0,96,0.00,,,0.01,0,Wunderground v.1.15,2013-01-14 07:15:00,
2013-01-13 23:20:00,29.6,28.6,30.48,N/A,-737280,0.0,-999.0,96,0.00,,,0.01,0,Wunderground v.1.15,2013-01-14 07:20:00,
2013-01-13 23:25:00,29.5,28.5,30.47,N/A,-737280,0.0,-999.0,96,0.00,,,0.01,0,Wunderground v.1.15,2013-01-14 07:25:00,
2013-01-13 23:28:00,29.5,29.0,30.48,South,178,0.0,0.0,96,0.00,,,0.01,0,weatherlink.com 1.10,2013-01-14 07:28:00,
2013-01-13 23:30:00,29.5,28.5,30.47,N/A,-737280,0.0,-999.0,96,0.00,,,0.01,0,Wunderground v.1.15,2013-01-14 07:30:00,
2013-01-13 23:35:00,29.5,28.5,30.47,N/A,-737280,0.0,-999.0,96,0.00,,,0.01,0,Wunderground v.1.15,2013-01-14 07:35:00,
2013-01-13 23:40:00,29.5,28.5,30.47,N/A,-737280,0.0,-999.0,96,0.00,,,0.01,0,Wunderground v.1.15,2013-01-14 07:40:00,
2013-01-13 23:41:00,29.5,29.0,30.47,South,178,0.0,0.0,96,0.00,,,0.01,0,weatherlink.com 1.10,2013-01-14 07:41:00,
2013-01-13 23:45:00,29.5,28.5,30.47,N/A,-737280,0.0,-999.0,96,0.00,,,0.01,0,Wunderground v.1.15,2013-01-14 07:45:00,
2013-01-13 23:50:00,29.5,28.5,30.47,N/A,-737280,0.0,-999.0,96,0.00,,,0.01,0,Wunderground v.1.15,2013-01-14 07:50:00,
2013-01-13 23:55:00,29.5,28.5,30.47,N/A,-737280,0.0,-999.0,96,0.00,,,0.01,0,Wunderground v.1.15,2013-01-14 07:55:00,
2013-01-13 23:56:00,29.5,29.0,30.46,South,178,0.0,0.0,96,0.00,,,0.01,0,weatherlink.com 1.10,2013-01-14 07:56:00,